Location: Marstown
(39.5056°N, 77.0820°W)
Time: 07:05:38
(UTC-04:00)

Envisat - Visible Passes

Search period start: 26 May 2017 00:00
Search period end: 05 June 2017 00:00
Orbit: 764 x 766 km, 98.2° (Epoch: 25 May)

Date Brightness Start Highest point End Pass type
(mag) Time Alt. Az. Time Alt. Az. Time Alt. Az.
26 May 5.3 22:20:40 10° SW 22:24:15 19° W 22:27:51 10° NW visible
27 May 4.1 21:42:30 10° S 21:47:18 43° W 21:52:09 10° NNW visible
28 May 3.0 21:05:29 10° SSE 21:10:33 83° ENE 21:15:40 10° N visible
28 May 5.8 22:49:38 10° W 22:50:10 10° W 22:50:42 10° W visible
29 May 5.0 22:08:59 10° SSW 22:13:04 24° W 22:17:11 10° NW visible
30 May 3.6 21:31:14 10° S 21:36:12 55° W 21:41:12 10° NNW visible
31 May 3.1 20:54:29 10° SSE 20:59:30 66° ENE 21:04:33 10° N visible
31 May 5.5 22:36:29 10° WSW 22:38:57 13° W 22:41:26 10° WNW visible
01 Jun 4.6 21:57:28 10° SSW 22:01:56 31° W 22:06:25 10° NW visible
02 Jun 3.3 21:20:03 10° S 21:25:06 71° WSW 21:30:11 10° NNW visible
03 Jun 5.4 22:24:26 10° SW 22:27:45 17° W 22:31:06 10° NW visible
04 Jun 4.2 21:46:04 10° SSW 21:50:47 39° W 21:55:33 10° NNW visible
